* Astronomy

Members Login
Post Info TOPIC: Asteroid 2010 GD35


L

Posts: 131433
Date:
RE: Asteroid 2010 GD35
Permalink  
 


The 33 - 75 metre wide asteroid 2010 GD35 will make a close pass (15.44 lunar distances, 0.0396 AU), travelling at 11.6 km/second, to the Earth on the 31st March 2018 @ 01:25 UT 00:01.

See more

The Lunar Distance (LD), the distance between Earth and the Moon, equals 384,401 km, (or 0.00256 AU).



__________________


L

Posts: 131433
Date:
Permalink  
 

The 33 - 75 metre wide asteroid 2010 GD35 will make a close pass (19.0 lunar distances, 0.0489 AU), travelling at 11.07 km/second, to the Earth-Moon system on the 1st April 2014 @ 14:04 UT 1 day 10:51.

See more

The Lunar Distance (LD), the distance between Earth and the Moon, equals 384,401 km, (or 0.00256 AU).

Ephemeris

Date    TT    R. A. (2000) Decl.     Delta      r     Elong.  Phase     Mag
2014 03 31    16 14 19.3 +27 27 41   0.04546 1.0216   118.9    58.8    19.9
2014 04 01    15 37 26.8 +27 46 19   0.04498 1.0266   126.6    51.4    19.7
2014 04 02    15 00 26.4 +27 27 19   0.04542 1.0315   134.0    44.2    19.6
2014 04 03    14 25 10.2 +26 33 48   0.04678 1.0363   140.5    37.9    19.4
2014 04 04    13 53 02.3 +25 14 27   0.04898 1.0409   145.8    32.7    19.4
2014 04 05    13 24 45.1 +23 40 00   0.05192 1.0454   149.6    29.0    19.4
2014 04 06    13 00 24.1 +21 59 54   0.05550 1.0498   151.7    26.8    19.5
2014 04 07    12 39 41.9 +20 20 52   0.05961 1.0541   152.4    26.1    19.7
2014 04 08    12 22 11.1 +18 46 56   0.06415 1.0582   152.0    26.3    19.9
2014 04 09    12 07 22.2 +17 20 02   0.06904 1.0623   150.9    27.3    20.0
2014 04 10    11 54 48.3 +16 00 47   0.07422 1.0662   149.3    28.7    20.3


__________________


L

Posts: 131433
Date:
Permalink  
 

The 33 - 73 metre wide asteroid 2010 GD35 will make a close pass (24.5 lunar distances, 0.0630 AU), travelling at 10.64 km/second, to the Earth-Moon system on the 3rd April, 2012 @ 03:49 UT 23:25.

See more

The Lunar Distance (LD), the distance between Earth and the Moon, equals 384,401 km, (or 0.00256 AU).



__________________


L

Posts: 131433
Date:
Permalink  
 

The 32 - 72 metre wide asteroid 2010 GD35 will make a close pass (31.0 lunar distances, 0.0796 AU), travelling at 10.36 km/second, to the Earth-Moon system on the 6th April, 2010.

See more

The Lunar Distance (LD), the distance between Earth and the Moon, equals 384,401 km, (or 0.00256 AU).


__________________


L

Posts: 131433
Date:
Permalink  
 

Orbital elements:
2010 GD35 Earth MOID = 0.0390 AU
Epoch 2010 July 23.0 TT = JDT 2455400.5 MPC
M 288.99913 (2000.0) P Q
n 1.47583792 Peri. 13.57785 +0.77801784 -0.62559180
a 0.7640298 Node 25.42586 +0.56313644 +0.65377095
e 0.4821880 Incl. 7.71625 +0.27850600 +0.42569760
P 0.67 H 24.6 G 0.15 U 9

MPEC 2010 - G100


__________________
Page 1 of 1  sorted by
 
Quick Reply

Please log in to post quick replies.



Create your own FREE Forum
Report Abuse
Powered by ActiveBoard